Location: Babice
(50.3480°N, 22.9363°E)
Time: 11:58:09
(UTC+00:00)

Cosmos 1602 - Pass Details

Date: 14 July 2020
Orbit: 515 x 533 km, 82.5° (Epoch: 07 August)

Event Time Altitude Azimuth Distance (km) Brightness Sun altitude
Exits shadow 00:17:28 24° 230° (SW) 1,105 4.8 -14.5°
Maximum altitude 00:19:19 41° 285° (WNW) 765 4.4 -14.4°
Drops below altitude 10° 00:23:00 10° 357° (N) 1,765 7.4 -14.1°
Sets 00:25:15 0° 5° (N) 2,662 8.7 -13.9°
